Regional Weather Roundup
Issued by NWS State College, PA

Home | Current Version | Previous Version | Graphics & Text | Print | Product List | Glossary On
Versions: 1 2 3 4 5 6 7 8 9 10 11 12 13 14 15 16 17 18 19 20 21 22 23 24 25 26 27 28 29 30 31 32 33 34 35 36 37 38 39 40 41 42 43 44 45 46 47 48 49 50
000
ASUS41 KCTP 231803
RWRCTP

REGIONAL WEATHER ROUNDUP
NATIONAL WEATHER SERVICE STATE COLLEGE PA
200 PM EDT WED JUL 23 2014

Note: "fair" indicates few or no clouds below 12,000 feet with no
significant weather and/or obstructions to visibility.

* = STATION THAT DOES NOT REPORT PRECIPITATION /E.G. RAIN...SNOW...ETC/
    THUNDER OR FOG.

PAZ002>004-007>009-013>016-020>023-029>032-231900-
WESTERN PENNSYLVANIA

CITY           SKY/WX    TMP DP  RH WIND       PRES   REMARKS
ERIE           LGT RAIN  68  63  84 W8        29.98R
MEADVILLE      CLOUDY    70  65  84 NW12G20   30.00R
FRANKLIN*      CLOUDY    79  66  65 W9        29.99R
NEW CASTLE       N/A     78  68  71 W6        29.99R
BEAVER COUNTY  CLOUDY    79  66  65 NW7       29.99R
BUTLER*        CLOUDY    81  70  69 W12       29.99R
PITTSBURGH INT CLOUDY    83  67  58 W13       29.97R
PITTSBURGH     CLOUDY    82  69  64 VRB3      29.96R
INDIANA*       PTSUNNY   82  70  65 W8        29.99S
LATROBE        PTSUNNY   81  73  78 W9        29.97R
WASHINGTON CO* CLOUDY    81  72  74 W7        29.99R
$$

PAZ004>006-010>012-017>019-024>028-033>037-041-042-045-046-049>053-231900-
CENTRAL PENNSYLVANIA

CITY           SKY/WX    TMP DP  RH WIND       PRES   REMARKS
BRADFORD       MOSUNNY   77  65  66 W8        29.96S
DUBOIS         PTSUNNY   80  70  71 W12       29.95S THUNDER
CLEARFIELD     PTSUNNY   84  67  56 W10G22    29.93F
JOHNSTOWN      MOSUNNY   81  67  62 NW16      30.00R
ALTOONA        MOSUNNY   84  68  58 SW9       29.95S
STATE COLLEGE  PTSUNNY   86  70  58 W7        29.91F
WILLIAMSPORT   PTSUNNY   90  69  50 W12       29.84F
SELINSGROVE    PTSUNNY   87  73  62 VRB5      29.87F
FT INDIANTOWN  MOSUNNY   90  73  58 SW7       29.88F HX  98
CAPITAL CITY   MOSUNNY   89  72  56 S10       29.86F HX  96
HARRISBURG     MOSUNNY   92  71  50 VRB5      29.86F HX  98
YORK           MOSUNNY   90  72  55 SW8       29.88F HX  97
$$

PAZ038>040-043-044-047-048-054-055-060>062-067>071-231900-
EASTERN PENNSYLVANIA

CITY           SKY/WX    TMP DP  RH WIND       PRES   REMARKS
SCRANTON       SUNNY     91  66  43 W12G21    29.87F
MOUNT POCONO   PTSUNNY   81  69  67 SW12      29.95F
ALLENTOWN      MOSUNNY   89  71  55 SW9       29.88F HX  95
QUAKERTOWN*    MOCLDY    90  72  55 S8        29.90F HX  96
READING        MOSUNNY   90  73  57 SW8       29.87F HX  98
LANCASTER      MOSUNNY   88  71  57 SW10      29.88F
COATESVILLE    LGT RAIN  84  73  70 S6        29.93F
POTTSTOWN      PTSUNNY   88  70  55 SW9       29.90F
BLUE BELL      MOSUNNY   90  73  58 SW8       29.88F HX  98
DOYLESTOWN     PTSUNNY   87  72  60 SW8       29.89S
WILLOW GROVE   NOT AVBL
NORTH PHILA    PTSUNNY   89  70  53 SW13      29.90F
PHILADELPHIA   PTSUNNY   89  70  53 SW12      29.89F
$$


USA.gov is the U.S. government's official web portal to all federal, state and local government web resources and services.